Location: Star Camp Observatory
(34.2910°N, 116.3827°W)
Time: 00:31:05
(UTC-08:00)

Envisat - Pass Details

Date: 17 November 2019
Orbit: 764 x 766 km, 98.1° (Epoch: 08 December)

Event Time Altitude Azimuth Distance (km) Brightness Sun altitude
Rises 18:47:34 0° 199° (SSW) 3,215 6.5 -26.2°
Reaches altitude 10° 18:50:18 10° 213° (SSW) 2,293 5.9 -26.8°
Maximum altitude 18:54:16 23° 265° (W) 1,586 5.3 -27.6°
Drops below altitude 10° 18:58:14 10° 317° (NW) 2,304 5.9 -28.4°
Sets 19:01:01 0° 332° (NNW) 3,234 6.5 -29.0°
